�����͌���@�\�w���ɂ��Y���u�C�̈ړ���,,,,,,,,
�@,Time,Lat.,,Long.,,Direction,Speed,
Date(yy/mm/dd),(hh:mm),(deg),(min),(deg),(min),(deg),(m/s),(knots)
2004/6/23,9:30,36,47.688,137,4.194,,,
2004/6/23,9:35,36,47.676,137,4.26,100.3,0.41,0.8
2004/6/23,9:40,36,47.664,137,4.314,102.5,0.34,0.66
2004/6/23,9:45,36,47.658,137,4.374,95.7,0.37,0.72
2004/6/23,9:50,36,47.658,137,4.416,90,0.26,0.5


�A,Time,Lat.,,Long.,,Direction,Speed,
Date(yy/mm/dd),(hh:mm),(deg),(min),(deg),(min),(deg),(m/s),(knots)
2004/6/23,10:30,36,47.682,137,4.2,,,
2004/6/23,10:35,36,47.688,137,4.272,85.1,0.43,0.83
2004/6/23,10:40,36,47.676,137,4.338,100.7,0.4,0.77
2004/6/23,10:45,36,47.676,137,4.38,86.8,0.23,0.45
2004/6/23,10:50,36,47.676,137,4.428,87.3,0.27,0.52
2004/6/23,10:55,36,47.67,137,4.476,95.2,0.27,0.52
2004/6/23,11:00,36,47.676,137,4.53,80.7,0.31,0.6
2004/6/23,11:05,36,47.682,137,4.578,81.5,0.33,0.64
2004/6/23,11:10,36,47.694,137,4.638,77.9,0.41,0.79
2004/6/23,11:15,36,47.682,137,4.674,104.7,0.25,0.49
2004/6/23,11:20,36,47.682,137,4.71,87.8,0.25,0.48
2004/6/23,11:25,36,47.682,137,4.752,90,0.28,0.54
2004/6/23,11:30,36,47.676,137,4.794,97.6,0.28,0.54
2004/6/23,11:35,36,47.676,137,4.836,90,0.28,0.54
2004/6/23,11:40,36,47.67,137,4.872,98.8,0.24,0.47
2004/6/23,11:45,36,47.676,137,4.896,73.3,0.13,0.25


�B,Time,Lat.,,Long.,,Direction,Speed,
Date(yy/mm/dd),(hh:mm),(deg),(min),(deg),(min),(deg),(m/s),(knots)
2004/6/23,12:20,36,47.658,137,4.368,,,
2004/6/23,12:30,36,47.634,137,4.476,103.9,0.31,0.6
2004/6/23,12:35,36,47.64,137,4.53,85.3,0.34,0.67
2004/6/23,12:40,36,47.628,137,4.584,103.6,0.35,0.68
2004/6/23,12:45,36,47.64,137,4.626,74.1,0.27,0.52
2004/6/23,12:50,36,47.634,137,4.692,95.2,0.41,0.8
2004/6/23,13:00,36,47.64,137,4.8,86.8,0.33,0.65
2004/6/23,13:05,36,47.652,137,4.848,76,0.31,0.59
2004/6/23,13:10,36,47.676,137,4.89,60.3,0.3,0.58
2004/6/23,13:15,36,47.664,137,4.92,111.8,0.2,0.39
2004/6/23,13:20,36,47.682,137,4.944,53.1,0.19,0.36
2004/6/23,13:25,36,47.688,137,4.974,78.7,0.19,0.37
2004/6/23,13:30,36,47.706,137,4.998,53.1,0.19,0.36
2004/6/23,13:40,36,47.73,137,5.022,45,0.1,0.2
2004/6/23,13:45,36,47.736,137,5.028,45,0.05,0.1
2004/6/23,13:50,36,47.742,137,5.052,76,0.15,0.3
2004/6/23,14:00,36,47.766,137,5.082,51.3,0.12,0.23
2004/6/23,14:05,36,47.772,137,5.088,45,0.05,0.1
2004/6/23,14:10,36,47.784,137,5.094,26.6,0.08,0.16
2004/6/23,14:15,36,47.79,137,5.118,70.9,0.11,0.22
2004/6/23,14:20,36,47.796,137,5.136,62,0.08,0.15
2004/6/23,14:25,36,47.802,137,5.154,62,0.08,0.15
2004/6/23,14:30,36,47.808,137,5.16,353.2,0.04,0.07
2004/6/23,14:35,36,47.82,137,5.19,68.2,0.2,0.39
2004/6/23,14:40,36,47.826,137,5.202,63.4,0.08,0.16
2004/6/23,14:45,36,47.838,137,5.238,71.6,0.23,0.46
2004/6/23,14:55,36,47.856,137,5.304,74.7,0.21,0.41


�C,Time,Lat.,,Long.,,Direction,Speed,
Date(yy/mm/dd),(hh:mm),(deg),(min),(deg),(min),(deg),(m/s),(knots)
2004/6/23,9:25,36,47.736,137,4.14,,,
2004/6/23,9:30,36,47.742,137,4.194,83.7,0.34,0.65
2004/6/23,9:35,36,47.736,137,4.248,96.3,0.34,0.65
2004/6/23,9:40,36,47.748,137,4.302,77.5,0.34,0.66
2004/6/23,9:45,36,47.754,137,4.338,80.5,0.23,0.44
2004/6/23,9:50,36,47.772,137,4.38,66.8,0.28,0.55
2004/6/23,9:55,36,47.784,137,4.41,68.2,0.2,0.39
2004/6/23,10:00,36,47.802,137,4.458,69.4,0.32,0.62
2004/6/23,10:05,36,47.814,137,4.488,68.2,0.2,0.39
2004/6/23,10:10,36,47.808,137,4.5,116.6,0.08,0.16
2004/6/23,10:15,36,47.82,137,4.542,73,0.25,0.49
2004/6/23,10:20,36,47.82,137,4.56,90,0.09,0.18
2004/6/23,10:25,36,47.832,137,4.59,66.3,0.18,0.36
2004/6/23,10:30,36,47.838,137,4.608,68.6,0.1,0.2
2004/6/23,10:35,36,47.862,137,4.656,62.1,0.32,0.62
2004/6/23,10:40,36,47.868,137,4.686,77.6,0.17,0.34
2004/6/23,10:45,36,47.88,137,4.71,53.6,0.15,0.28
2004/6/23,10:50,36,47.874,137,4.722,119.3,0.05,0.1
2004/6/23,10:55,36,47.892,137,4.74,33,0.15,0.29
2004/6/23,11:00,36,47.898,137,4.782,77.7,0.23,0.45
2004/6/23,11:05,36,47.91,137,4.812,68.1,0.23,0.44
2004/6/23,11:10,36,47.922,137,4.842,68.1,0.23,0.44
2004/6/23,11:15,36,47.898,137,4.866,129,0.22,0.43
2004/6/23,11:20,36,47.91,137,4.884,58.1,0.16,0.31
2004/6/23,11:25,36,47.904,137,4.902,106.2,0.13,0.26
2004/6/23,11:30,36,47.892,137,4.914,129.3,0.12,0.23
2004/6/23,11:35,36,47.892,137,4.926,90,0.09,0.18
2004/6/23,11:40,36,47.886,137,4.932,124.6,0.07,0.13
2004/6/23,11:45,36,47.886,137,4.944,90,0.05,0.1
2004/6/23,11:50,36,47.886,137,4.95,90,0.01,0.02
2004/6/23,11:55,36,47.886,137,4.956,90,0.01,0.02


�D,Time,Lat.,,Long.,,Direction,Speed,
Date(yy/mm/dd),(hh:mm),(deg),(min),(deg),(min),(deg),(m/s),(knots)
2004/6/23,12:10,36,47.874,137,4.11,,,
2004/6/23,12:15,36,47.862,137,4.116,170.7,0.08,0.15
2004/6/23,12:20,36,47.862,137,4.128,90,0.05,0.1
2004/6/23,12:25,36,47.868,137,4.14,47.8,0.06,0.11
2004/6/23,12:30,36,47.898,137,4.152,12.5,0.19,0.37
2004/6/23,12:35,36,47.874,137,4.176,135,0.22,0.43
2004/6/23,12:40,36,47.868,137,4.206,103.3,0.2,0.39
2004/6/23,12:45,36,47.892,137,4.218,26.6,0.17,0.32
2004/6/23,12:50,36,47.904,137,4.236,56.3,0.13,0.26
2004/6/23,12:55,36,47.898,137,4.26,104,0.15,0.3
2004/6/23,13:00,36,47.916,137,4.26,0,0.11,0.22
2004/6/23,13:05,36,47.928,137,4.272,45,0.1,0.2
2004/6/23,13:10,36,47.922,137,4.278,135,0.05,0.1
2004/6/23,13:15,36,47.94,137,4.272,341.6,0.12,0.23
2004/6/23,13:20,36,47.952,137,4.26,315,0.1,0.2
2004/6/23,13:25,36,47.958,137,4.242,288.4,0.12,0.23
2004/6/23,13:30,36,47.952,137,4.224,251.6,0.12,0.23
2004/6/23,13:35,36,47.964,137,4.212,315,0.1,0.2
2004/6/23,13:40,36,47.97,137,4.194,288.4,0.12,0.23
2004/6/23,13:45,36,47.97,137,4.17,270,0.15,0.29
2004/6/23,13:50,36,47.982,137,4.158,315,0.1,0.2
2004/6/23,13:55,36,47.976,137,4.14,251.6,0.12,0.23
2004/6/23,14:00,36,47.982,137,4.104,279.5,0.23,0.44


�E,Time,Lat.,,Long.,,Direction,Speed,
Date(yy/mm/dd),(hh:mm),(deg),(min),(deg),(min),(deg),(m/s),(knots)
2004/6/23,14:05,36,47.784,137,4.23,,,
2004/6/23,14:10,36,47.784,137,4.26,90,0.19,0.36
2004/6/23,14:15,36,47.778,137,4.266,186.8,0.04,0.07
2004/6/23,14:20,36,47.796,137,4.272,357.7,0.11,0.22
2004/6/23,14:25,36,47.796,137,4.284,90,0.03,0.06
2004/6/23,14:30,36,47.802,137,4.302,62,0.08,0.15
2004/6/23,14:35,36,47.808,137,4.302,0,0.04,0.07
2004/6/23,14:40,36,47.808,137,4.314,90,0.07,0.14
2004/6/23,14:45,36,47.82,137,4.314,0,0.07,0.14
2004/6/23,14:50,36,47.82,137,4.32,90,0.04,0.07
2004/6/23,14:55,36,47.82,137,4.326,90,0.04,0.07
2004/6/23,15:00,36,47.838,137,4.332,18.4,0.12,0.23
